667  
ASUS41 KGYX 222210  
RWRGYX  
WEATHER ROUNDUP FOR MAINE AND NEW HAMPSHIRE  
NATIONAL WEATHER SERVICE GRAY ME  
600 PM EDT FRI SEP 22 2017  
 
MEZ002-005-006-010-012-015-018-020-021-024-026-027-029-222300-  
MAINE  
 
CITY SKY/WX TMP DP RH WIND PRES REMARKS
 
PORTLAND MOCLDY 69 50 50 NE8 30.06R  
SANFORD CLOUDY 68 54 60 NE7 30.06R  
BAR HARBOR CLOUDY 69 45 41 NE8 30.07F  
WISCASSET CLOUDY 70 50 49 CALM 30.07S  
ROCKLAND CLOUDY 65 53 65 CALM 30.06S  
FRYEBURG CLOUDY 68 57 68 CALM 30.08S  
LEWISTONAUBURN MOCLDY 69 51 52 N8 30.06F  
AUGUSTA CLOUDY 70 49 47 N8 30.08F  
WATERVILLE CLOUDY 70 50 49 NE5 30.06S  
BANGOR PTCLDY 75 45 34 N7 30.08S  
GREENVILLE N/A 65 44 46 CALM 30.10S  
MILLINOCKET CLEAR 65 45 48 CALM 30.10S  
HOULTON CLEAR 64 52 64 CALM 30.08F  
PRESQUE ISLE CLEAR 72 49 44 CALM 30.10F  
FRENCHVILLE CLEAR 68 45 43 S6 30.09F  
CARIBOU CLEAR 70 47 43 S3 30.09F  

 
 
NHZ002-005-008-009-011-012-014-222300-  
NEW HAMPSHIRE  
 
CITY SKY/WX TMP DP RH WIND PRES REMARKS
 
PORTSMOUTH CLOUDY 67 53 59 NE9 30.03S  
ROCHESTER CLOUDY 68 51 54 N6 30.05R  
NASHUA CLOUDY 68 54 60 NE10 30.04S  
MANCHESTER CLOUDY 69 53 56 NE9 30.03R  
CONCORD CLOUDY 70 49 47 N7 30.05S  
LACONIA CLOUDY 69 52 54 CALM 30.07S  
PLYMOUTH CLOUDY 68 58 70 CALM 30.06S  
BERLIN CLEAR 73 44 35 CALM 30.09S  
WHITEFIELD CLEAR 75 40 28 E5 30.08S  
JAFFREY CLOUDY 67 53 61 VRB3 30.06R  
KEENE CLOUDY 71 53 52 NE3 30.04  
LEBANON CLOUDY 71 62 73 CALM 30.04F  
MT WASHINGTON FOG 52 52 100 E14 N/A VSB 1/16  

 
 
VTZ005-007-008-222300-  
VERMONT  
 
CITY SKY/WX TMP DP RH WIND PRES REMARKS
 
ST JOHNSBURY N/A 75 45 34 MISG 30.05S  
MONTPELIER CLEAR 73 52 47 NW3 30.11F  
BURLINGTON PTCLDY 76 52 43 NW8 30.06F  

 
 
MAZ007-012-024-CTZ003-RIZ002-NYZ038-NYZ072-222300-  
SOUTHERN NEW ENGLAND AND NY  
 
CITY SKY/WX TMP DP RH WIND PRES REMARKS
 
BOSTON DRIZZLE 60 58 92 N23G35 29.99F FOG  
WORCESTER CLOUDY 61 55 81 N9 30.02S  
NANTUCKET LGT RAIN 62 62 100 NE26G35 29.79S FOG  
PROVIDENCE LGT RAIN 61 60 97 N21G32 29.96R FOG  
HARTFORD MOCLDY 75 56 51 N16G28 29.98R  
ALBANY PTCLDY 77 48 35 N5 30.03F  
NEW YORK CITY PTCLDY 79 58 48 N14 29.93S  

 
 
ANZ081-ANZ082-ANZ150-NHZ014-MEZ023>029-222300-  
COASTAL MARINE OBSERVATIONS  
 
STATION/POSITION TIME TEMP WIND PRES WAVE
 
AIR SEA DIR/SP/G HT/PER  
(UTC) (F) (DEG/KT/KT) (MB) (FT/S)  
MOUNT DESERT ROC 2200 58 30/ 19/ 21 1017.6F  
MATINICUS ROCK 2100 57 50/ 15/ 17 1017.2F  
ISLE OF SHOALS 2100 61 40/ 25/ 31 1016.1F  
JEFFREYS LEDGE 2136 62 N/A 12/10  
CASHES LEDGE BUO 2050 58 59 1015.9 10/10  
GEORGES BANK BUO 2050 73 72 1009.5 11/10  

 
   
............KEY...........
 
 
WCI - WIND CHILL  
TC - TEMPERATURE IN CELSIUS  
VSB - VISIBILITY
IN MILES  
HX - HEAT INDEX  
FAIR- INDICATES FEW OR NO CLOUDS BELOW 12,000 FT, WITH NO  
SIGNIFICANT WEATHER AND/OR S TO VISIBILITY.  
 
 
 
CLICK HERE TO GO TO PREVIOUS BULLETINS.

The Nexlab ME Page
The Nexlab NH Page Main Text Page